Location: Krakow
(50.0830°N, 19.9170°E)
Time: 11:04:33
(UTC+01:00)

Transit 2A - Pass Details

Date: 16 February 2023
Orbit: 591 x 964 km, 66.7° (Epoch: 21 March)

Event Time Altitude Azimuth Distance (km) Brightness Sun altitude
Rises 23:45:31 0° 313° (NW) 3,570 9.8 -52.0°
Enters shadow 23:45:47 - 312° (NW) 3,490 9.8 -52.0°
Reaches altitude 10° 23:48:47 10° 296° (WNW) 2,663 - -52.1°
Maximum altitude 23:52:53 19° 255° (WSW) 2,138 - -52.1°
Drops below altitude 10° 23:57:02 10° 214° (SW) 2,696 - -52.1°
Sets 00:00:23 0° 197° (SSW) 3,630 - -52.1°
